Sella Ness, United Kingdom

7:59 AM BST on April 27, 2018 (GMT +0100)
Scatsta

Weather History for EGPM - October, 2013

Change the Weather History Date:

Thursday, October 10, 2013

  Actual Average Record
Temperature  
Mean Temperature 42 °F -  
Max Temperature 46 °F 48 °F 59 °F (2006)
Min Temperature 37 °F 43 °F 37 °F (2013)
Degree Days  
Heating Degree Days 24    
Moisture  
Dew Point 37 °F    
Average Humidity 76    
Maximum Humidity 87    
Minimum Humidity 62    
Precipitation  
Precipitation 0.00 in - - ()
Sea Level Pressure  
Sea Level Pressure 30.29 in    
Wind  
Wind Speed 18 mph ()    
Max Wind Speed 29 mph    
Max Gust Speed 45 mph    
Visibility 6.2 miles    
Events Rain    
Averages and records for this station are not official NWS values.
T = Trace of Precipitation, MM = Missing Value Source: Averaged Metar Reports

Daily Weather History Graph

Daily Weather History Graph

Search for Another Location

Airport or City:

Astronomy

Oct. 10, 2013 Rise Set
Actual Time 7:33 AM BST 6:09 PM BST
Civil Twilight 6:50 AM BST 6:51 PM BST
Nautical Twilight 6:01 AM BST 7:40 PM BST
Astronomical Twilight 5:11 AM BST 8:30 PM BST
Moon 2:16 PM BST (10/10) 9:28 PM BST (10/10)
Length of Visible Light 12h 01m
Length of Day
10h 36m
Waxing Crescent, 33% of the Moon is Illuminated
Oct 10
Waxing Crescent
Oct 12
First Quarter
Oct 19
Full
Oct 27
Last Quarter
Nov 3
New

Hourly Weather History & Observations

Time (BST) Temp. Windchill Dew Point Humidity Pressure Visibility Wind Dir Wind Speed Gust Speed Precip Events Conditions
12:20 AM 44.6 °F 35.7 °F 39.2 °F 81% 30.09 in 6.2 mi North 24.2 mph - N/A   Mostly Cloudy
12:50 AM 44.6 °F 36.1 °F 39.2 °F 81% 30.09 in 6.2 mi North 21.9 mph 34.5 mph N/A   Mostly Cloudy
1:20 AM 44.6 °F 35.9 °F 37.4 °F 76% 30.09 in 6.2 mi North 23.0 mph - N/A Rain Light Rain
1:50 AM 44.6 °F 35.7 °F 39.2 °F 81% 30.12 in 6.2 mi North 24.2 mph - N/A   Mostly Cloudy
2:20 AM 44.6 °F 35.3 °F 37.4 °F 76% 30.15 in 6.2 mi North 26.5 mph - N/A Rain Rain
2:50 AM 46.4 °F 38.1 °F 39.2 °F 76% 30.15 in 6.2 mi North 24.2 mph 38.0 mph N/A   Mostly Cloudy
3:20 AM 44.6 °F 35.3 °F 39.2 °F 81% 30.15 in 6.2 mi North 26.5 mph - N/A   Mostly Cloudy
3:50 AM 44.6 °F 35.5 °F 37.4 °F 76% 30.15 in 6.2 mi North 25.3 mph - N/A   Scattered Clouds
4:20 AM 44.6 °F 34.9 °F 37.4 °F 76% 30.15 in 6.2 mi North 28.8 mph 44.9 mph N/A   Scattered Clouds
4:50 AM 44.6 °F 35.5 °F 37.4 °F 76% 30.18 in 6.2 mi North 25.3 mph - N/A   Mostly Cloudy
5:20 AM 46.4 °F 38.1 °F 33.8 °F 62% 30.18 in 6.2 mi North 24.2 mph - N/A   Mostly Cloudy
5:50 AM 46.4 °F 37.7 °F 33.8 °F 62% 30.18 in 6.2 mi North 26.5 mph - N/A   Mostly Cloudy
6:20 AM 44.6 °F 35.3 °F 37.4 °F 76% 30.18 in 6.2 mi North 26.5 mph - N/A   Scattered Clouds
6:50 AM 46.4 °F 38.3 °F 39.2 °F 76% 30.18 in 6.2 mi North 23.0 mph - N/A   Partly Cloudy
7:20 AM 44.6 °F 35.9 °F 37.4 °F 76% 30.21 in 6.2 mi North 23.0 mph - N/A   Partly Cloudy
7:50 AM 44.6 °F 35.9 °F 37.4 °F 76% 30.21 in 6.2 mi North 23.0 mph - N/A   Partly Cloudy
8:20 AM 44.6 °F 35.9 °F 35.6 °F 71% 30.24 in 6.2 mi North 23.0 mph - N/A   Partly Cloudy
8:50 AM 46.4 °F 38.7 °F 37.4 °F 71% 30.24 in 6.2 mi North 20.7 mph - N/A   Scattered Clouds
9:20 AM 46.4 °F 39.0 °F 39.2 °F 76% 30.27 in 6.2 mi North 19.6 mph - N/A   Scattered Clouds
9:50 AM 46.4 °F 38.1 °F 41.0 °F 81% 30.30 in 6.2 mi North 24.2 mph - N/A   Mostly Cloudy
10:20 AM 46.4 °F 38.5 °F 37.4 °F 71% 30.30 in 6.2 mi Variable 21.9 mph - N/A   Mostly Cloudy
10:50 AM 44.6 °F 36.4 °F 35.6 °F 71% 30.30 in 6.2 mi North 20.7 mph - N/A   Mostly Cloudy
11:20 AM 44.6 °F 36.1 °F 35.6 °F 71% 30.30 in 6.2 mi North 21.9 mph - N/A   Mostly Cloudy
11:50 AM 44.6 °F 36.1 °F 33.8 °F 66% 30.30 in 6.2 mi North 21.9 mph - N/A   Mostly Cloudy
12:20 PM 46.4 °F 38.7 °F 35.6 °F 66% 30.33 in 6.2 mi North 20.7 mph - N/A   Mostly Cloudy
12:50 PM 46.4 °F 39.8 °F 37.4 °F 71% 30.33 in 6.2 mi North 16.1 mph - N/A   Mostly Cloudy
1:20 PM 46.4 °F 39.2 °F 37.4 °F 71% 30.33 in 6.2 mi North 18.4 mph - N/A   Mostly Cloudy
2:20 PM 46.4 °F 40.1 °F 37.4 °F 71% 30.33 in 6.2 mi North 15.0 mph - N/A   Mostly Cloudy
2:50 PM 46.4 °F 39.8 °F 37.4 °F 71% 30.33 in 6.2 mi North 16.1 mph - N/A   Mostly Cloudy
3:20 PM 46.4 °F 40.1 °F 37.4 °F 71% 30.33 in 6.2 mi North 15.0 mph - N/A   Scattered Clouds
3:50 PM 46.4 °F 40.1 °F 37.4 °F 71% 30.33 in 6.2 mi North 15.0 mph - N/A   Partly Cloudy
4:20 PM 46.4 °F 40.1 °F 37.4 °F 71% 30.36 in 6.2 mi NNW 15.0 mph - N/A   Partly Cloudy
4:50 PM 46.4 °F 39.8 °F 37.4 °F 71% 30.36 in 6.2 mi North 16.1 mph - N/A   Partly Cloudy
5:20 PM 46.4 °F 40.1 °F 37.4 °F 71% 30.36 in 6.2 mi NNW 15.0 mph - N/A   Partly Cloudy
5:50 PM 44.6 °F 38.4 °F 37.4 °F 76% 30.39 in 6.2 mi NNW 12.7 mph - N/A   Partly Cloudy
6:20 PM 44.6 °F 38.8 °F 35.6 °F 71% 30.39 in 6.2 mi North 11.5 mph - N/A   Partly Cloudy
6:50 PM 42.8 °F 39.3 °F 37.4 °F 81% 30.39 in 6.2 mi NW 5.8 mph - N/A   Partly Cloudy
7:20 PM 42.8 °F 38.6 °F 37.4 °F 81% 30.42 in 6.2 mi NW 6.9 mph - N/A   Partly Cloudy
7:50 PM 41.0 °F 35.8 °F 35.6 °F 81% 30.42 in 6.2 mi NW 8.1 mph - N/A   Partly Cloudy
8:20 PM 41.0 °F 37.1 °F 35.6 °F 81% 30.42 in 6.2 mi NW 5.8 mph - N/A   Unknown
8:50 PM 41.0 °F 36.4 °F 35.6 °F 81% 30.42 in 6.2 mi NW 6.9 mph - N/A   Unknown
9:20 PM 41.0 °F 37.1 °F 35.6 °F 81% 30.42 in 6.2 mi NNW 5.8 mph - N/A   Unknown
9:50 PM 39.2 °F 37.0 °F 33.8 °F 81% 30.42 in 6.2 mi Variable 3.5 mph - N/A   Unknown
10:20 PM 39.2 °F 37.0 °F 35.6 °F 87% 30.42 in 6.2 mi Variable 3.5 mph - N/A   Unknown
10:50 PM 37.4 °F 33.8 °F 33.8 °F 87% 30.45 in 6.2 mi WSW 4.6 mph - N/A   Unknown
11:20 PM 37.4 °F 33.8 °F 33.8 °F 87% 30.45 in 6.2 mi West 4.6 mph - N/A   Partly Cloudy
11:50 PM 37.4 °F 33.8 °F 33.8 °F 87% 30.45 in 6.2 mi SSW 4.6 mph - N/A   Unknown